period_start,C,m1,H,J0,J1,J2,J3,J4,J5,JA,JB,JC,JD,JJ,JK,JN,#
2016-05-11 00:04:53,0.01,0.34,0.00,16.87,21.62,25.66,14.92,49.49,1014.66,2059.36,3411.01,3092.02,3500.91,599.50,607.01,19.23,0000 0000 0000 0000 000000
2016-05-11 00:09:54,0.01,0.34,0.00,16.87,21.62,25.67,14.89,49.38,1014.67,2059.33,3410.68,3091.99,3500.18,600.02,607.47,19.28,0000 0000 0000 0000 000000
2016-05-11 00:14:55,0.01,0.34,0.00,16.89,21.63,25.69,14.92,49.45,1014.68,2059.31,3410.07,3091.82,3500.00,600.26,607.74,19.33,0000 0000 0000 0000 000000
2016-05-11 00:19:56,0.01,0.34,0.00,16.89,21.64,25.70,14.95,49.61,1014.68,2059.21,3409.98,3091.14,3499.95,599.77,607.14,19.38,0000 0000 0000 0000 000000
2016-05-11 00:24:58,0.04,0.34,0.00,16.92,21.64,25.69,14.94,49.47,1014.68,2059.30,3409.35,3091.00,3499.27,600.02,607.45,19.43,0000 0000 0000 0000 000000
2016-05-11 00:29:59,-0.02,0.34,0.00,16.94,21.65,25.68,14.94,49.48,1014.68,2059.12,3409.01,3090.99,3499.01,600.02,607.37,19.48,0000 0000 0000 0000 000000
2016-05-11 00:35:00,0.04,0.34,0.00,16.97,21.67,25.76,14.89,49.30,1014.67,2059.07,3408.53,3090.46,3498.81,599.93,607.10,19.53,0000 0000 0000 0000 000000
2016-05-11 00:40:01,0.01,0.35,0.00,16.98,21.67,25.81,14.92,49.61,1014.68,2059.07,3408.02,3090.04,3498.13,599.94,607.11,19.58,0000 0000 0000 0000 000000
2016-05-11 00:45:03,0.01,0.35,0.00,16.99,21.68,25.80,14.88,49.36,1014.67,2059.05,3407.80,3089.99,3498.00,599.90,607.12,19.63,0000 0000 0000 0000 000000
2016-05-11 00:50:04,0.03,0.35,0.00,17.02,21.69,25.73,14.87,49.37,1014.67,2059.03,3407.06,3089.63,3497.52,599.80,606.93,19.68,0000 0000 0000 0000 000000
2016-05-11 00:55:06,0.02,0.35,0.00,17.03,21.70,25.80,14.90,49.62,1014.66,2059.02,3406.56,3089.03,3497.01,599.75,606.91,19.73,0000 0000 0000 0000 000000
2016-05-11 01:00:07,0.01,0.35,0.00,17.06,21.72,25.80,14.92,49.44,1014.66,2059.01,3406.01,3088.97,3496.73,599.93,607.02,19.78,0000 0000 0000 0000 000000
2016-05-11 01:05:08,0.04,0.35,0.00,17.08,21.72,25.85,14.93,49.36,1014.66,2059.01,3405.59,3088.39,3496.04,599.96,606.95,19.83,0000 0000 0000 0000 000000
2016-05-11 01:10:09,0.00,0.35,0.00,17.13,21.74,25.90,14.92,49.37,1014.66,2059.00,3405.01,3088.01,3495.93,599.94,606.94,19.88,0000 0000 0000 0000 000000
2016-05-11 01:15:11,0.02,0.35,0.00,17.14,21.74,25.96,14.85,49.48,1014.66,2059.00,3404.72,3087.97,3495.17,599.52,606.46,19.93,0000 0000 0000 0000 000000
2016-05-11 01:20:12,0.03,0.35,0.00,17.14,21.76,25.92,14.94,49.38,1014.66,2059.00,3404.03,3087.35,3495.00,599.86,606.75,19.98,0000 0000 0000 0000 000000
2016-05-11 01:25:13,0.02,0.35,0.00,17.16,21.77,25.89,14.89,49.38,1014.66,2059.00,3403.69,3087.01,3494.57,600.20,607.14,20.03,0000 0000 0000 0000 000000
2016-05-11 01:30:14,0.01,0.36,0.00,17.18,21.77,25.94,14.90,49.40,1014.66,2058.99,3403.03,3086.93,3494.02,599.85,606.71,20.08,0000 0000 0000 0000 000000
2016-05-11 01:35:15,0.02,0.36,0.00,17.22,21.79,25.98,14.90,49.38,1014.65,2058.99,3402.78,3086.36,3493.94,599.94,606.63,20.13,0000 0000 0000 0000 000000
2016-05-11 01:40:17,0.03,0.36,0.00,17.24,21.80,26.01,14.80,49.36,1014.64,2058.98,3402.03,3086.02,3493.23,599.72,606.27,20.18,0000 0000 0000 0000 000000
2016-05-11 01:45:18,0.01,0.36,0.00,17.28,21.82,25.99,14.92,49.48,1014.65,2058.97,3401.63,3085.82,3492.95,600.18,606.86,20.23,0000 0000 0000 0000 000000
2016-05-11 01:50:19,0.03,0.36,0.00,17.29,21.83,26.05,14.90,49.57,1014.63,2058.96,3401.02,3085.14,3492.37,600.16,606.74,20.28,0000 0000 0000 0000 000000
2016-05-11 01:55:21,0.00,0.36,0.00,17.31,21.84,26.08,14.92,49.63,1014.64,2058.93,3400.60,3085.00,3492.01,600.10,606.62,20.33,0000 0000 0000 0000 000000
2016-05-11 02:00:22,0.01,0.36,0.00,17.36,21.87,26.06,14.96,49.49,1014.65,2058.73,3400.02,3084.69,3491.58,600.20,606.78,20.38,0000 0000 0000 0000 000000
2016-05-11 02:05:23,-0.00,0.36,0.00,17.38,21.88,26.07,14.85,49.52,1014.61,2058.46,3399.44,3084.07,3491.04,599.75,606.14,20.43,0000 0000 0000 0000 000000
2016-05-11 02:10:25,0.01,0.36,0.00,17.39,21.90,26.17,14.90,49.52,1014.48,2058.28,3399.00,3083.98,3490.86,600.08,606.30,20.48,0000 0000 0000 0000 000000
2016-05-11 02:15:26,0.02,0.36,0.00,17.43,21.92,26.13,14.80,49.53,1014.45,2058.08,3398.48,3083.45,3490.07,599.42,605.55,20.53,0000 0000 0000 0000 000000
2016-05-11 02:20:27,0.01,0.36,0.00,17.46,21.94,26.16,14.81,49.27,1014.48,2058.03,3397.99,3083.01,3489.88,599.77,606.02,20.58,0000 0000 0000 0000 000000
2016-05-11 02:25:28,0.02,0.37,0.00,17.50,21.96,26.22,14.87,49.42,1014.49,2058.02,3397.28,3082.91,3489.18,599.90,605.94,20.63,0000 0000 0000 0000 000000
2016-05-11 02:30:29,0.02,0.37,0.00,17.53,21.98,26.24,14.88,49.38,1014.48,2058.00,3396.95,3082.12,3488.95,600.03,606.16,20.68,0000 0000 0000 0000 000000
2016-05-11 02:35:30,0.02,0.37,0.00,17.55,22.00,26.26,14.87,49.45,1014.33,2058.01,3396.32,3081.99,3488.41,599.99,605.79,20.73,0000 0000 0000 0000 000000
2016-05-11 02:40:32,0.02,0.37,0.00,17.57,22.03,26.29,14.87,49.41,1014.35,2058.00,3395.89,3081.67,3488.01,599.63,605.47,20.78,0000 0000 0000 0000 000000
2016-05-11 02:45:33,0.03,0.37,0.00,17.61,22.05,26.33,14.85,49.52,1014.30,2058.00,3395.13,3081.02,3487.60,599.79,605.63,20.83,0000 0000 0000 0000 000000
2016-05-11 02:50:34,0.02,0.37,0.00,17.63,22.07,26.32,14.88,49.52,1014.29,2057.99,3394.65,3080.71,3486.96,599.98,605.63,20.88,0000 0000 0000 0000 000000
2016-05-11 02:55:35,0.02,0.37,0.00,17.67,22.09,26.34,14.89,49.49,1014.35,2057.98,3394.02,3080.04,3486.18,599.64,605.19,20.93,0000 0000 0000 0000 000000
2016-05-11 03:00:37,0.01,0.37,0.00,17.68,22.12,26.36,14.91,49.48,1014.28,2057.97,3393.33,3079.94,3485.96,600.21,605.69,20.98,0000 0000 0000 0000 000000
2016-05-11 03:05:38,0.01,0.38,0.00,17.72,22.14,26.39,14.88,49.33,1014.25,2057.83,3392.89,3079.18,3485.19,600.38,605.82,21.03,0000 0000 0000 0000 000000
2016-05-11 03:10:39,-0.02,0.37,0.00,17.75,22.17,26.39,14.95,49.60,1014.23,2057.35,3392.14,3078.98,3484.95,600.44,605.77,21.08,0000 0000 0000 0000 000000
2016-05-11 03:15:40,0.01,0.37,0.00,17.80,22.19,26.47,14.86,49.50,1014.19,2057.11,3391.86,3078.38,3484.17,599.97,605.28,21.13,0000 0000 0000 0000 000000
2016-05-11 03:20:41,0.01,0.38,0.00,17.82,22.21,26.50,14.88,49.52,1014.21,2057.05,3391.09,3078.01,3483.92,600.15,605.35,21.18,0000 0000 0000 0000 000000
2016-05-11 03:25:43,0.02,0.38,0.00,17.85,22.24,26.48,14.85,49.41,1014.22,2057.02,3390.93,3077.80,3483.15,599.85,605.00,21.23,0000 0000 0000 0000 000000
2016-05-11 03:30:45,0.03,0.38,0.00,17.89,22.26,26.52,14.81,49.39,1014.29,2057.00,3390.14,3077.06,3482.97,599.87,604.99,21.28,0000 0000 0000 0000 000000
2016-05-11 03:35:46,0.01,0.38,0.00,17.91,22.28,26.58,14.77,49.30,1014.35,2057.00,3389.96,3076.99,3482.24,599.86,604.96,21.33,0000 0000 0000 0000 000000
2016-05-11 03:40:47,0.03,0.38,0.00,17.95,22.31,26.59,14.90,49.33,1014.37,2057.00,3389.18,3076.49,3482.00,600.22,605.31,21.38,0000 0000 0000 0000 000000
2016-05-11 03:45:49,0.01,0.38,0.00,17.98,22.33,26.61,14.82,49.43,1014.36,2056.99,3388.93,3076.03,3481.65,600.01,604.97,21.43,0000 0000 0000 0000 000000
2016-05-11 03:50:50,0.01,0.38,0.00,18.01,22.36,26.63,14.78,49.39,1014.55,2056.97,3388.21,3075.96,3481.02,599.83,604.80,21.48,0000 0000 0000 0000 000000
2016-05-11 03:55:51,0.02,0.38,0.00,18.05,22.38,26.66,14.84,49.53,1014.48,2056.87,3387.83,3075.18,3480.52,599.46,604.48,21.53,0000 0000 0000 0000 000000
2016-05-11 04:00:52,-0.03,0.38,0.00,18.08,22.41,26.66,14.85,49.43,1014.55,2056.49,3387.07,3074.95,3480.00,599.85,604.78,21.58,0000 0000 0000 0000 000000
2016-05-11 04:05:54,0.02,0.38,0.00,18.09,22.43,26.72,14.80,49.26,1014.58,2056.10,3386.57,3074.19,3479.67,599.75,604.58,21.63,0000 0000 0000 0000 000000
2016-05-11 04:10:55,0.01,0.38,0.00,18.12,22.46,26.80,14.84,49.38,1014.58,2056.06,3385.98,3073.98,3479.03,599.97,604.71,21.68,0000 0000 0000 0000 000000
2016-05-11 04:15:57,0.02,0.39,0.00,18.13,22.48,26.81,14.80,49.28,1014.62,2056.03,3385.37,3073.62,3478.85,600.05,605.04,21.73,0000 0000 0000 0000 000000
2016-05-11 04:20:58,0.02,0.39,0.00,18.19,22.51,26.83,14.77,49.33,1014.64,2056.01,3385.00,3073.04,3478.09,599.27,603.97,21.78,0000 0000 0000 0000 000000
2016-05-11 04:25:59,0.02,0.39,0.00,18.21,22.54,26.82,14.91,49.44,1014.61,2056.00,3384.29,3072.90,3477.68,600.09,604.72,21.83,0000 0000 0000 0000 000000
2016-05-11 04:31:00,0.03,0.39,0.00,18.24,22.57,26.86,14.88,49.54,1014.60,2056.00,3383.90,3072.11,3477.02,600.28,604.61,21.88,0000 0000 0000 0000 000000
2016-05-11 04:36:02,0.02,0.39,0.00,18.27,22.59,26.89,14.76,49.39,1014.60,2055.99,3383.09,3071.92,3476.53,599.68,604.15,21.93,0000 0000 0000 0000 000000
2016-05-11 04:41:03,0.03,0.39,0.00,18.30,22.62,26.91,14.90,49.42,1014.62,2055.96,3382.40,3071.13,3476.00,600.23,604.74,21.98,0000 0000 0000 0000 000000
2016-05-11 04:46:04,0.01,0.39,0.00,18.33,22.65,26.96,14.84,49.42,1014.62,2055.90,3381.95,3071.00,3475.47,599.94,604.43,22.03,0000 0000 0000 0000 000000
2016-05-11 04:51:05,-0.01,0.39,0.00,18.36,22.68,27.00,14.76,49.18,1014.66,2055.42,3381.10,3070.50,3474.94,599.69,604.03,22.08,0000 0000 0000 0000 000000
2016-05-11 04:56:07,0.01,0.39,0.00,18.37,22.70,27.05,14.81,49.26,1014.66,2055.10,3380.57,3070.01,3474.15,600.04,604.40,22.13,0000 0000 0000 0000 000000
2016-05-11 05:01:08,0.02,0.39,0.00,18.40,22.73,27.02,14.90,49.46,1014.66,2055.03,3379.95,3069.62,3473.82,600.14,604.40,22.18,0000 0000 0000 0000 000000
2016-05-11 05:06:09,0.03,0.40,0.00,18.43,22.76,27.06,14.83,49.40,1014.66,2055.00,3379.11,3069.01,3473.05,600.27,604.45,22.24,0000 0000 0000 0000 000000
2016-05-11 05:11:11,0.04,0.40,0.00,18.46,22.78,27.13,14.89,49.48,1014.66,2055.00,3378.58,3068.59,3472.49,600.49,604.71,22.29,0000 0000 0000 0000 000000
2016-05-11 05:16:12,0.01,0.40,0.00,18.48,22.81,27.14,14.82,49.32,1014.66,2055.00,3377.99,3068.02,3471.99,600.33,604.49,22.34,0000 0000 0000 0000 000000
2016-05-11 05:21:13,0.03,0.40,0.00,18.50,22.83,27.10,14.81,49.24,1014.66,2054.98,3377.17,3067.78,3471.35,600.07,604.14,22.39,0000 0000 0000 0000 000000
2016-05-11 05:26:15,0.02,0.40,0.00,18.52,22.86,27.19,14.88,49.20,1014.65,2054.97,3376.61,3067.06,3470.94,600.31,604.31,22.44,0000 0000 0000 0000 000000
2016-05-11 05:31:16,0.02,0.40,0.00,18.56,22.89,27.20,14.81,49.23,1014.63,2054.92,3375.97,3066.77,3470.11,600.21,604.13,22.49,0000 0000 0000 0000 000000
2016-05-11 05:36:17,0.02,0.41,0.00,18.59,22.92,27.21,14.80,49.38,1014.61,2054.82,3375.21,3066.06,3469.88,600.05,603.90,22.54,0000 0000 0000 0000 000000
2016-05-11 05:41:18,-0.01,0.40,0.00,18.58,22.94,27.23,14.82,49.28,1014.65,2054.42,3374.69,3065.93,3469.08,600.09,604.08,22.59,0000 0000 0000 0000 000000
2016-05-11 05:46:19,0.02,0.41,0.00,18.61,22.97,27.26,14.91,49.40,1014.66,2054.18,3374.02,3065.23,3468.71,600.23,604.11,22.64,0000 0000 0000 0000 000000
2016-05-11 05:51:20,0.01,0.41,0.00,18.64,22.99,27.29,14.81,49.51,1014.65,2054.04,3373.24,3064.93,3468.03,600.23,604.06,22.69,0000 0000 0000 0000 000000
2016-05-11 05:56:22,0.04,0.41,0.00,18.66,23.02,27.28,14.84,49.27,1014.61,2054.01,3372.68,3064.14,3467.39,599.92,603.65,22.74,0000 0000 0000 0000 000000
2016-05-11 06:01:23,0.01,0.41,0.00,18.68,23.05,27.30,14.79,49.45,1014.60,2054.00,3372.02,3063.97,3466.96,599.93,603.59,22.79,0000 0000 0000 0000 000000
2016-05-11 06:06:24,0.05,0.41,0.00,18.70,23.07,27.36,14.87,49.37,1014.65,2054.00,3371.26,3063.33,3466.22,600.05,603.78,22.84,0000 0000 0000 0000 000000
2016-05-11 06:11:25,0.01,0.41,0.00,18.73,23.09,27.37,14.78,49.39,1014.63,2053.99,3370.74,3062.98,3465.84,599.37,602.96,22.89,0000 0000 0000 0000 000000
2016-05-11 06:16:27,0.03,0.41,0.00,18.75,23.12,27.41,14.78,49.33,1014.60,2053.97,3370.03,3062.47,3465.12,599.88,603.44,22.94,0000 0000 0000 0000 000000
2016-05-11 06:21:28,0.02,0.41,0.00,18.78,23.14,27.44,14.84,49.34,1014.58,2053.95,3369.48,3062.01,3464.88,600.34,603.79,22.99,0000 0000 0000 0000 000000
2016-05-11 06:26:30,0.00,0.42,0.00,18.79,23.17,27.45,14.83,49.48,1014.57,2053.66,3368.87,3061.59,3464.07,600.06,603.57,23.04,0000 0000 0000 0000 000000
2016-05-11 06:31:31,-0.00,0.42,0.00,18.80,23.19,27.47,14.76,49.42,1014.50,2053.22,3368.06,3061.01,3463.64,600.11,603.41,23.09,0000 0000 0000 0000 000000
2016-05-11 06:36:33,0.02,0.42,0.00,18.83,23.21,27.46,14.81,49.50,1014.49,2053.06,3367.57,3060.69,3463.01,599.84,603.33,23.14,0000 0000 0000 0000 000000
2016-05-11 06:41:34,0.02,0.42,0.00,18.84,23.23,27.47,14.81,49.52,1014.55,2053.01,3366.92,3060.02,3462.37,599.99,603.29,23.19,0000 0000 0000 0000 000000
2016-05-11 06:46:35,0.02,0.42,0.00,18.87,23.26,27.54,14.83,49.41,1014.38,2053.00,3366.10,3059.76,3461.97,600.25,603.35,23.24,0000 0000 0000 0000 000000
2016-05-11 06:51:37,0.03,0.42,0.00,18.87,23.28,27.50,14.84,49.48,1014.37,2053.00,3365.65,3059.09,3461.34,600.12,603.38,23.29,0000 0000 0000 0000 000000
2016-05-11 06:56:38,0.01,0.42,0.00,18.88,23.30,27.58,14.87,49.42,1014.44,2053.00,3365.00,3058.89,3460.93,600.35,603.48,23.34,0000 0000 0000 0000 000000
2016-05-11 07:01:39,0.04,0.42,0.00,18.92,23.33,27.60,14.74,49.39,1014.48,2052.99,3364.20,3058.12,3460.14,599.78,602.88,23.39,0000 0000 0000 0000 000000
2016-05-11 07:06:40,0.02,0.42,0.00,18.92,23.35,27.58,14.78,49.49,1014.49,2052.98,3363.50,3057.91,3459.68,599.70,602.86,23.44,0000 0000 0000 0000 000000
2016-05-11 07:11:42,0.03,0.43,0.00,18.95,23.37,27.60,14.84,49.37,1014.54,2052.94,3362.96,3057.10,3459.01,600.07,603.07,23.49,0000 0000 0000 0000 000000
2016-05-11 07:16:43,0.02,0.43,0.00,18.97,23.38,27.63,14.83,49.25,1014.55,2052.86,3362.14,3056.98,3458.45,600.29,603.33,23.54,0000 0000 0000 0000 000000
2016-05-11 07:21:45,0.01,0.43,0.00,18.98,23.41,27.69,14.79,49.20,1014.65,2052.68,3361.69,3056.40,3457.99,599.74,602.81,23.59,0000 0000 0000 0000 000000
2016-05-11 07:26:46,-0.02,0.43,0.00,18.98,23.43,27.71,14.77,49.23,1014.66,2052.20,3361.04,3056.00,3457.30,599.88,602.95,23.64,0000 0000 0000 0000 000000
2016-05-11 07:31:47,0.02,0.43,0.00,19.01,23.45,27.66,14.69,49.21,1014.66,2052.05,3360.27,3055.60,3456.96,599.60,602.64,23.69,0000 0000 0000 0000 000000
2016-05-11 07:36:49,0.02,0.43,0.00,19.03,23.47,27.71,14.76,48.98,1014.66,2052.02,3359.78,3055.04,3456.19,599.81,602.79,23.74,0000 0000 0000 0000 000000
2016-05-11 07:41:50,0.02,0.43,0.00,19.04,23.49,27.74,14.74,49.20,1014.66,2052.01,3359.04,3054.67,3455.95,600.01,602.89,23.79,0000 0000 0000 0000 000000
2016-05-11 07:46:51,0.03,0.43,0.00,19.04,23.51,27.75,14.73,49.13,1014.66,2052.00,3358.46,3054.05,3455.21,599.89,602.73,23.84,0000 0000 0000 0000 000000
2016-05-11 07:51:52,0.00,0.43,0.00,19.04,23.52,27.78,14.86,49.19,1014.66,2052.00,3357.98,3053.98,3454.99,600.05,602.93,23.89,0000 0000 0000 0000 000000
2016-05-11 07:56:53,0.04,0.44,0.00,19.04,23.55,27.78,14.86,49.24,1014.66,2051.99,3357.20,3053.34,3454.35,600.32,603.25,23.94,0000 0000 0000 0000 000000
2016-05-11 08:01:55,0.01,0.44,0.00,19.05,23.56,27.77,14.76,49.03,1014.66,2051.99,3356.72,3053.00,3453.97,600.04,603.02,23.99,0000 0000 0000 0000 000000
2016-05-11 08:06:56,0.03,0.44,0.00,19.07,23.58,27.79,14.77,49.18,1014.66,2051.97,3356.03,3052.55,3453.26,599.86,602.74,24.04,0000 0000 0000 0000 000000
2016-05-11 08:11:57,0.01,0.44,0.00,19.07,23.60,27.78,14.76,49.14,1014.66,2051.97,3355.70,3052.02,3452.99,599.62,602.58,24.09,0000 0000 0000 0000 000000
2016-05-11 08:16:59,0.00,0.44,0.00,19.07,23.62,27.75,14.75,49.14,1014.66,2051.92,3355.03,3051.99,3452.51,599.73,602.70,24.14,0000 0000 0000 0000 000000
2016-05-11 08:22:00,0.02,0.44,0.00,19.08,23.63,27.77,14.79,49.06,1014.66,2051.78,3354.55,3051.43,3452.01,599.92,602.61,24.19,0000 0000 0000 0000 000000
2016-05-11 08:27:02,0.00,0.44,0.00,19.09,23.65,27.82,14.83,49.28,1014.66,2051.53,3354.01,3051.01,3451.64,599.92,602.59,24.24,0000 0000 0000 0000 000000
2016-05-11 08:32:03,-0.00,0.44,0.00,19.10,23.66,27.81,14.86,49.13,1014.66,2051.34,3353.53,3050.97,3451.04,600.59,603.47,24.29,0000 0000 0000 0000 000000
2016-05-11 08:37:04,0.01,0.44,0.00,19.10,23.67,27.82,14.86,49.22,1014.66,2051.11,3352.97,3050.26,3450.74,600.43,603.31,24.34,0000 0000 0000 0000 000000
2016-05-11 08:42:05,0.02,0.44,0.00,19.10,23.69,27.79,14.70,48.98,1014.66,2051.07,3352.27,3050.00,3450.05,599.92,602.81,24.39,0000 0000 0000 0000 000000
2016-05-11 08:47:07,0.02,0.44,0.00,19.09,23.70,27.84,14.82,49.20,1014.66,2051.02,3351.83,3049.55,3449.87,599.98,602.72,24.44,0000 0000 0000 0000 000000
2016-05-11 08:52:08,0.03,0.45,0.00,19.11,23.72,27.83,14.84,49.24,1014.66,2051.01,3351.04,3049.01,3449.07,599.87,602.67,24.49,0000 0000 0000 0000 000000
2016-05-11 08:57:10,0.04,0.45,0.00,19.13,23.73,27.84,14.78,49.23,1014.66,2051.00,3350.27,3048.62,3448.65,599.98,602.76,24.54,0000 0000 0000 0000 000000
2016-05-11 09:02:11,0.08,0.45,0.00,19.12,23.75,27.86,14.81,49.14,1014.66,2051.00,3348.54,3047.44,3447.34,599.94,602.66,24.59,0000 0000 0000 0000 000000
2016-05-11 09:07:12,0.05,0.45,0.00,19.12,23.76,27.90,14.77,49.09,1014.66,2051.00,3347.20,3046.64,3446.27,599.78,602.61,24.64,0000 0000 0000 0000 000000
2016-05-11 09:12:14,0.02,0.46,0.00,19.13,23.77,27.86,14.83,49.08,1014.67,2050.99,3346.65,3046.03,3445.95,600.21,602.96,24.69,0000 0000 0000 0000 000000
2016-05-11 09:17:15,0.02,0.46,0.00,19.12,23.80,27.84,14.73,49.00,1014.67,2050.98,3346.02,3045.89,3445.21,599.88,602.67,24.74,0000 0000 0000 0000 000000
2016-05-11 09:22:16,0.03,0.46,0.00,19.12,23.80,27.84,14.78,49.11,1014.66,2050.98,3345.44,3045.23,3444.99,599.81,602.66,24.79,0000 0000 0000 0000 000000
2016-05-11 09:27:17,0.02,0.46,0.00,19.12,23.82,27.91,14.69,49.15,1014.67,2050.97,3345.00,3045.01,3444.41,599.77,602.52,24.84,0000 0000 0000 0000 000000
2016-05-11 09:32:18,0.02,0.46,0.00,19.13,23.82,27.88,14.79,49.08,1014.67,2050.98,3344.39,3044.88,3444.01,599.57,602.32,24.89,0000 0000 0000 0000 000000
2016-05-11 09:37:20,0.03,0.46,0.00,19.13,23.85,27.87,14.84,49.25,1014.67,2050.96,3343.96,3044.12,3443.72,600.31,603.05,24.94,0000 0000 0000 0000 000000
2016-05-11 09:42:21,0.03,0.46,0.00,19.14,23.85,27.86,14.80,49.08,1014.69,2050.93,3343.00,3043.77,3442.90,600.08,602.82,24.99,0000 0000 0000 0000 000000
2016-05-11 09:47:22,0.03,0.47,0.00,19.14,23.86,27.85,14.73,49.12,1014.68,2050.87,3342.02,3043.03,3442.06,599.66,602.35,25.05,0000 0000 0000 0000 000000
2016-05-11 09:52:24,0.02,0.47,0.00,19.13,23.87,27.83,14.81,49.15,1014.68,2050.73,3341.18,3042.61,3441.68,600.05,602.85,25.10,0000 0000 0000 0000 000000
2016-05-11 09:57:25,0.00,0.47,0.00,19.14,23.87,27.83,14.77,48.98,1014.68,2050.45,3340.71,3042.01,3441.02,599.80,602.63,25.15,0000 0000 0000 0000 000000
2016-05-11 10:02:26,0.02,0.47,0.00,19.14,23.89,27.82,14.85,49.12,1014.67,2050.36,3340.02,3041.91,3440.67,600.09,602.86,25.20,0000 0000 0000 0000 000000
2016-05-11 10:07:28,0.02,0.47,0.00,19.13,23.90,27.86,14.81,49.05,1014.67,2050.22,3339.39,3041.16,3440.02,600.37,603.03,25.25,0000 0000 0000 0000 000000
2016-05-11 10:12:29,0.02,0.47,0.00,19.14,23.90,27.85,14.84,49.31,1014.68,2050.21,3338.95,3041.00,3439.84,600.29,603.04,25.30,0000 0000 0000 0000 000000
2016-05-11 10:17:30,0.02,0.47,0.00,19.12,23.90,27.84,14.83,49.32,1014.67,2050.16,3338.15,3040.75,3439.09,600.02,602.82,25.35,0000 0000 0000 0000 000000
2016-05-11 10:22:31,0.02,0.47,0.00,19.12,23.91,27.86,14.84,49.27,1014.68,2050.07,3337.70,3040.05,3438.86,600.29,603.03,25.40,0000 0000 0000 0000 000000
2016-05-11 10:27:33,0.02,0.47,0.00,19.12,23.92,27.86,14.79,49.30,1014.67,2050.04,3337.01,3039.98,3438.07,599.98,602.82,25.45,0000 0000 0000 0000 000000
2016-05-11 10:32:34,0.03,0.47,0.00,19.12,23.92,27.86,14.81,49.21,1014.67,2050.05,3336.32,3039.43,3437.92,599.82,602.62,25.50,0000 0000 0000 0000 000000
2016-05-11 10:37:36,0.01,0.48,0.00,19.09,23.92,27.84,14.77,49.13,1014.66,2050.04,3335.88,3039.02,3437.15,600.11,602.91,25.55,0000 0000 0000 0000 000000
2016-05-11 10:42:37,0.02,0.48,0.00,19.09,23.92,27.85,14.79,49.27,1014.67,2050.03,3335.10,3038.81,3436.99,599.76,602.58,25.60,0000 0000 0000 0000 000000
2016-05-11 10:47:38,0.04,0.48,0.00,19.08,23.91,27.85,14.74,49.15,1014.67,2050.05,3334.70,3038.06,3436.25,599.66,602.65,25.65,0000 0000 0000 0000 000000
2016-05-11 10:52:40,0.00,0.48,0.00,19.08,23.90,27.84,14.83,49.13,1014.69,2050.02,3334.03,3037.99,3435.99,600.09,603.01,25.70,0000 0000 0000 0000 000000
2016-05-11 10:57:41,0.05,0.48,0.00,19.07,23.90,27.82,14.75,49.11,1014.69,2050.05,3333.39,3037.49,3435.40,599.53,602.51,25.75,0000 0000 0000 0000 000000
2016-05-11 11:02:42,0.00,0.48,0.00,19.08,23.90,27.81,14.82,49.11,1014.68,2050.03,3332.98,3037.02,3435.01,600.27,603.20,25.80,0000 0000 0000 0000 000000
2016-05-11 11:07:44,0.02,0.48,0.00,19.07,23.90,27.83,14.77,49.09,1014.68,2050.02,3332.15,3036.96,3434.55,599.82,602.71,25.85,0000 0000 0000 0000 000000
2016-05-11 11:12:45,0.03,0.49,0.00,19.06,23.90,27.82,14.83,49.12,1014.70,2050.03,3331.87,3036.39,3434.02,600.15,603.08,25.90,0000 0000 0000 0000 000000
2016-05-11 11:17:46,0.02,0.49,0.00,19.06,23.90,27.82,14.78,49.12,1014.72,2050.06,3331.13,3036.02,3433.97,599.82,602.78,25.95,0000 0000 0000 0000 000000
2016-05-11 11:22:48,0.01,0.49,0.00,19.02,23.90,27.80,14.84,49.28,1014.72,2050.03,3330.82,3035.99,3433.26,599.49,602.56,26.00,0000 0000 0000 0000 000000
2016-05-11 11:27:49,0.03,0.49,0.00,19.03,23.89,27.79,14.84,49.25,1014.70,2050.02,3330.06,3035.49,3433.00,600.01,603.01,26.05,0000 0000 0000 0000 000000
2016-05-11 11:32:51,0.03,0.49,0.00,19.02,23.87,27.79,14.79,49.08,1014.73,2050.03,3329.63,3035.02,3432.54,600.15,603.18,26.10,0000 0000 0000 0000 000000
2016-05-11 11:37:52,0.00,0.49,0.00,19.00,23.87,27.79,14.81,49.05,1014.69,2050.04,3329.02,3034.99,3432.02,600.13,603.09,26.15,0000 0000 0000 0000 000000
2016-05-11 11:42:53,0.02,0.49,0.00,19.00,23.87,27.76,14.80,49.13,1014.70,2050.07,3328.68,3034.83,3431.98,599.70,602.67,26.20,0000 0000 0000 0000 000000
2016-05-11 11:47:54,0.03,0.49,0.00,18.98,23.87,27.74,14.81,49.05,1014.70,2050.11,3328.03,3034.14,3431.38,599.92,603.01,26.25,0000 0000 0000 0000 000000
2016-05-11 11:52:55,0.01,0.49,0.00,18.97,23.85,27.72,14.84,49.17,1014.68,2050.11,3327.61,3034.00,3431.00,600.03,603.05,26.30,0000 0000 0000 0000 000000
2016-05-11 11:57:57,0.01,0.50,0.00,18.95,23.85,27.70,14.83,49.07,1014.68,2050.15,3327.03,3033.96,3430.86,600.44,603.56,26.35,0000 0000 0000 0000 000000
2016-05-11 12:02:58,0.05,0.50,0.00,18.94,23.85,27.67,14.82,49.10,1014.69,2050.27,3326.72,3033.40,3430.12,600.20,603.33,26.40,0000 0000 0000 0000 000000
2016-05-11 12:08:00,0.02,0.50,0.00,18.92,23.83,27.67,14.79,48.96,1014.68,2050.29,3326.02,3033.01,3429.97,599.93,603.22,26.45,0000 0000 0000 0000 000000
2016-05-11 12:13:01,0.01,0.50,0.00,18.90,23.82,27.68,14.74,49.13,1014.69,2050.19,3325.49,3032.95,3429.31,599.48,602.73,26.50,0000 0000 0000 0000 000000
2016-05-11 12:18:02,0.05,0.50,0.00,18.89,23.82,27.65,14.79,49.25,1014.67,2050.45,3325.00,3032.43,3429.00,600.05,603.38,26.55,0000 0000 0000 0000 000000
2016-05-11 12:23:03,0.02,0.50,0.00,18.88,23.81,27.64,14.81,49.14,1014.66,2050.48,3324.39,3032.01,3428.86,599.94,603.01,26.60,0000 0000 0000 0000 000000
2016-05-11 12:28:05,0.03,0.51,0.00,18.85,23.80,27.66,14.83,49.23,1014.66,2050.64,3324.00,3032.00,3428.14,599.97,603.35,26.65,0000 0000 0000 0000 000000
2016-05-11 12:33:06,0.04,0.51,0.00,18.83,23.80,27.68,14.87,49.27,1014.66,2050.79,3323.39,3031.83,3428.00,600.22,603.61,26.70,0000 0000 0000 0000 000000
2016-05-11 12:38:07,0.03,0.51,0.00,18.83,23.79,27.64,14.78,49.23,1014.66,2050.96,3322.95,3031.16,3427.68,599.74,603.14,26.75,0000 0000 0000 0000 000000
2016-05-11 12:43:09,0.02,0.51,0.00,18.81,23.78,27.66,14.83,49.25,1014.66,2050.95,3322.22,3031.00,3427.06,599.66,603.20,26.80,0000 0000 0000 0000 000000
2016-05-11 12:48:10,0.00,0.51,0.00,18.79,23.77,27.64,14.96,49.31,1014.65,2050.97,3321.98,3030.95,3427.00,600.51,603.97,26.85,0000 0000 0000 0000 000000
2016-05-11 12:53:11,0.04,0.51,0.00,18.78,23.77,27.61,14.75,49.17,1014.64,2050.98,3321.29,3030.40,3426.68,600.02,603.50,26.90,0000 0000 0000 0000 000000
2016-05-11 12:58:12,0.01,0.51,0.00,18.77,23.76,27.59,14.85,49.29,1014.64,2050.99,3320.96,3030.01,3426.03,600.35,603.75,26.95,0000 0000 0000 0000 000000